Погода в Вперёд

Россия / Республика Дагестан     43°53′56″N   46°42′46″E
темп.,
°C
ветер,
м/с
пор.,
м/с
влажн.,
%
обл.,
%
осадки,
мм/ч
давл.,
гПа
погр.,
м
13 июня, вс
вс1300:00+20юв2267100 0.0 101123
03:00+19в237298 0.0 101123
06:00+22вюв2468100 0.0 1011201
09:00+26вюв2348100 0.0 1010930
12:00+30св443877 0.0 10102056
15:00+28св3545100 0.5 1009749
18:00+23ссз4769100 1.6 1010299
21:00+19зсз3693100 4.0 1012160
14 июня, пн
пн1400:00+18сз2497100 1.4 1012140
03:00+18зсз23951 1.4 101159
06:00+20сз35860 0.0 1012311
09:00+25ссз336118 0.0 10121085
12:00+29ссз44420 0.0 10101705
15:00+30ссв54380 0.0 10091609
18:00+28ссв44460 0.0 1009883
21:00+23с11630 0.0 101011
15 июня, вт
вт1500:00+22ссз22620 0.0 100813
03:00+20зюз00700 0.0 100811
06:00+24ссв22623 0.0 1008140
09:00+29св22436 0.0 10071304
12:00+33юв233398 0.0 10062148
15:00+34в633214 0.0 10072307
18:00+31юв55390 0.0 10071133
21:00+24ююв47600 0.0 1009116
16 июня, ср
ср1600:00+22ююв33630 0.0 100832
03:00+21вюв22640 0.0 100816
06:00+24вюв47590 0.0 1008233
09:00+31вюв79350 0.0 10071155
12:00+34вюв910290 0.0 10051420
15:00+34вюв810270 0.0 10051270
18:00+30в67350 0.0 1006849
21:00+22всв34750 0.0 100750
17 июня, чт
чт1700:00+21юз11830 0.0 100711
03:00+21з34760 0.0 100761
06:00+24з46670 0.0 1008315
09:00+29з44480 0.0 1007939
12:00+33юз22360 0.0 10051489
15:00+36ююз23280 0.0 10042331
18:00+34зсз12340 0.0 10061078
21:00+25з466597 0.4 100995